TimeCDT,TemperatureF,Dew PointF,Humidity,Sea Level PressureIn,VisibilityMPH,Wind Direction,Wind SpeedMPH,Gust SpeedMPH,PrecipitationIn,Events,Conditions,WindDirDegrees,DateUTC
12:53 AM,69.1,59.0,70,30.04,10.0,SE,6.9,-,N/A,,Partly Cloudy,130,2013-07-26 05:53:00
1:53 AM,68.0,59.0,73,30.01,10.0,ESE,8.1,-,N/A,,Clear,120,2013-07-26 06:53:00
2:53 AM,66.0,57.9,75,30.02,10.0,South,5.8,-,N/A,,Clear,190,2013-07-26 07:53:00
3:53 AM,64.9,59.0,81,30.00,10.0,SSE,5.8,-,N/A,,Scattered Clouds,160,2013-07-26 08:53:00
4:53 AM,66.9,59.0,76,30.01,10.0,South,8.1,-,N/A,,Mostly Cloudy,190,2013-07-26 09:53:00
5:53 AM,66.9,59.0,76,30.00,10.0,South,6.9,-,N/A,,Mostly Cloudy,190,2013-07-26 10:53:00
6:53 AM,68.0,60.1,76,30.01,10.0,South,6.9,-,N/A,,Overcast,190,2013-07-26 11:53:00
7:53 AM,69.1,61.0,75,30.02,10.0,South,6.9,-,N/A,,Overcast,190,2013-07-26 12:53:00
8:53 AM,70.0,62.1,76,30.02,10.0,South,6.9,-,N/A,,Overcast,190,2013-07-26 13:53:00
9:53 AM,71.1,63.0,75,30.02,10.0,South,9.2,-,N/A,,Mostly Cloudy,180,2013-07-26 14:53:00
10:53 AM,66.9,64.0,90,30.06,7.0,NW,5.8,-,0.01,Rain,Light Rain,310,2013-07-26 15:53:00
11:22 AM,66.2,64.4,94,30.08,2.5,NW,4.6,-,0.07,Rain,Heavy Rain,310,2013-07-26 16:22:00
11:53 AM,66.9,66.0,97,30.06,2.0,West,3.5,-,0.14,Rain,Rain,270,2013-07-26 16:53:00
12:07 PM,66.2,66.2,100,30.08,4.0,WSW,3.5,-,0.02,Rain,Light Rain,250,2013-07-26 17:07:00
12:53 PM,69.1,66.9,93,30.04,9.0,SSW,4.6,-,0.04,Rain,Light Rain,200,2013-07-26 17:53:00
1:14 PM,68.0,66.2,94,30.06,10.0,SSW,9.2,-,0.00,,Overcast,200,2013-07-26 18:14:00
1:30 PM,68.0,66.2,94,30.06,8.0,SSW,8.1,-,0.00,Rain,Light Rain,210,2013-07-26 18:30:00
1:53 PM,68.0,66.9,96,30.04,5.0,SSW,9.2,-,0.01,Rain,Light Rain,210,2013-07-26 18:53:00
2:10 PM,68.0,66.2,94,30.06,5.0,SW,5.8,-,0.02,Rain,Light Rain,220,2013-07-26 19:10:00
2:35 PM,69.8,68.0,94,30.05,8.0,SW,8.1,-,0.03,Rain,Light Rain,220,2013-07-26 19:35:00
2:45 PM,69.8,68.0,94,30.05,10.0,SW,6.9,-,0.03,Rain,Light Rain,230,2013-07-26 19:45:00
2:53 PM,69.1,68.0,96,30.03,9.0,SW,8.1,-,0.03,Rain,Light Rain,220,2013-07-26 19:53:00
3:53 PM,69.1,68.0,96,30.03,9.0,SSW,6.9,-,0.00,Rain,Light Rain,200,2013-07-26 20:53:00
4:53 PM,69.1,66.9,93,30.03,10.0,SSW,8.1,-,0.00,,Overcast,210,2013-07-26 21:53:00
5:00 PM,69.8,66.2,88,30.05,10.0,SW,8.1,-,N/A,,Overcast,220,2013-07-26 22:00:00
5:30 PM,69.8,68.0,94,30.04,10.0,SSW,4.6,-,N/A,,Overcast,210,2013-07-26 22:30:00
5:53 PM,69.1,66.9,93,30.01,10.0,South,4.6,-,N/A,,Overcast,190,2013-07-26 22:53:00
6:28 PM,69.8,68.0,94,30.02,10.0,SSW,6.9,-,N/A,,Overcast,210,2013-07-26 23:28:00
6:53 PM,71.1,69.1,93,29.98,10.0,SSW,8.1,-,N/A,,Overcast,210,2013-07-26 23:53:00
7:13 PM,69.8,68.0,94,30.00,10.0,SW,6.9,-,N/A,,Mostly Cloudy,220,2013-07-27 00:13:00
7:25 PM,69.8,68.0,94,30.00,10.0,SW,8.1,-,N/A,,Partly Cloudy,230,2013-07-27 00:25:00
7:53 PM,69.1,66.9,93,29.97,10.0,SW,4.6,-,N/A,,Clear,220,2013-07-27 00:53:00
8:24 PM,66.2,66.2,100,29.99,7.0,SW,4.6,-,N/A,,Partly Cloudy,230,2013-07-27 01:24:00
8:53 PM,66.0,66.0,100,29.96,4.0,SW,5.8,-,N/A,,Partly Cloudy,220,2013-07-27 01:53:00
9:28 PM,66.2,66.2,100,30.00,1.8,SW,4.6,-,N/A,,Scattered Clouds,220,2013-07-27 02:28:00
9:32 PM,66.2,66.2,100,30.00,0.8,SW,3.5,-,N/A,,Mist,220,2013-07-27 02:32:00
9:40 PM,66.2,66.2,100,30.00,0.2,SW,4.6,-,N/A,Fog,Fog,220,2013-07-27 02:40:00
9:53 PM,66.0,66.0,100,29.98,0.2,SW,4.6,-,N/A,Fog,Fog,220,2013-07-27 02:53:00
10:25 PM,66.2,66.2,100,30.00,0.8,SW,4.6,-,N/A,,Mist,220,2013-07-27 03:25:00
10:33 PM,66.2,66.2,100,30.00,0.5,SW,4.6,-,N/A,Fog,Fog,230,2013-07-27 03:33:00
10:48 PM,64.4,64.4,100,30.00,1.0,SW,4.6,-,N/A,,Mist,230,2013-07-27 03:48:00
10:53 PM,64.9,64.9,100,29.98,2.0,SW,5.8,-,N/A,,Scattered Clouds,230,2013-07-27 03:53:00
11:01 PM,64.4,64.4,100,30.00,4.0,WSW,5.8,-,N/A,,Partly Cloudy,240,2013-07-27 04:01:00
11:53 PM,66.0,66.0,100,29.99,5.0,West,6.9,-,0.01,,Partly Cloudy,260,2013-07-27 04:53:00